| time (UTC) | temp C | wind direction | speed KPH | gust KPH | rain 1hr cm | rain 24hr cm | rain mn cm | humidity % | barometer mb |
| 20260510083007 | 8 | 360 | 0.0 | 0.0 | 0.00 | 0.00 | 0.00 | 95 | 1013.8 |
| 20260510082506 | 8 | 360 | 0.0 | 0.0 | 0.00 | 0.00 | 0.00 | 95 | 1013.7 |
| 20260510082008 | 8 | 360 | 0.0 | 0.0 | 0.00 | 0.00 | 0.00 | 95 | 1013.7 |
| 20260510081505 | 8 | 360 | 0.0 | 0.0 | 0.00 | 0.00 | 0.00 | 95 | 1013.8 |
| 20260510081005 | 8 | 360 | 0.0 | 0.0 | 0.00 | 0.00 | 0.00 | 95 | 1013.7 |
| 20260510080505 | 8 | 360 | 0.0 | 0.0 | 0.00 | 0.00 | 0.00 | 95 | 1013.7 |
| 20260510080016 | 8 | 360 | 0.0 | 0.0 | 0.00 | 0.00 | 0.00 | 95 | 1013.6 |
| 20260510075504 | 9 | 360 | 0.0 | 0.0 | 0.00 | 0.00 | 0.00 | 95 | 1013.6 |
| 20260510075007 | 8 | 360 | 0.0 | 0.0 | 0.00 | 0.00 | 0.00 | 95 | 1013.4 |
| 20260510074504 | 8 | 360 | 0.0 | 0.0 | 0.00 | 0.00 | 0.00 | 95 | 1013.6 |
| 20260510074003 | 9 | 360 | 0.0 | 0.0 | 0.00 | 0.00 | 0.00 | 95 | 1013.5 |
| 20260510073502 | 9 | 360 | 0.0 | 0.0 | 0.00 | 0.00 | 0.00 | 95 | 1013.6 |
| 20260510073014 | 9 | 360 | 0.0 | 0.0 | 0.00 | 0.00 | 0.00 | 95 | 1013.4 |
| 20260510072504 | 9 | 360 | 0.0 | 0.0 | 0.00 | 0.00 | 0.00 | 95 | 1013.6 |
| 20260510072003 | 9 | 360 | 0.0 | 0.0 | 0.00 | 0.00 | 0.00 | 95 | 1013.6 |
| 20260510071601 | 9 | 360 | 0.0 | 0.0 | 0.00 | 0.00 | 0.00 | 95 | 1013.7 |
| 20260510071100 | 9 | 360 | 0.0 | 0.0 | 0.00 | 0.00 | 0.00 | 95 | 1013.6 |
| 20260510070600 | 9 | 360 | 0.0 | 0.0 | 0.00 | 0.00 | 0.00 | 95 | 1013.7 |
| 20260510070100 | 9 | 360 | 0.0 | 0.0 | 0.00 | 0.00 | 0.00 | 95 | 1013.7 |
| 20260510065559 | 9 | 360 | 0.0 | 0.0 | 0.00 | 0.00 | 0.00 | 95 | 1013.7 |
| 20260510065059 | 9 | 360 | 0.0 | 0.0 | 0.00 | 0.00 | 0.00 | 95 | 1013.6 |
| 20260510064605 | 9 | 360 | 0.0 | 0.0 | 0.00 | 0.00 | 0.00 | 95 | 1013.6 |
| 20260510064058 | 9 | 360 | 0.0 | 0.0 | 0.00 | 0.00 | 0.00 | 95 | 1013.6 |
| 20260510063558 | 9 | 360 | 0.0 | 0.0 | 0.00 | 0.00 | 0.00 | 94 | 1013.7 |
| 20260510063057 | 9 | 360 | 0.0 | 0.0 | 0.00 | 0.00 | 0.00 | 94 | 1013.6 |
| 20260510062557 | 9 | 360 | 0.0 | 0.0 | 0.00 | 0.00 | 0.00 | 95 | 1013.7 |
| 20260510062056 | 9 | 360 | 0.0 | 0.0 | 0.00 | 0.00 | 0.00 | 95 | 1013.6 |
| 20260510061559 | 9 | 360 | 0.0 | 0.0 | 0.00 | 0.00 | 0.00 | 95 | 1013.8 |
| 20260510061056 | 9 | 360 | 0.0 | 0.0 | 0.00 | 0.00 | 0.00 | 94 | 1013.8 |
| 20260510060556 | 9 | 360 | 0.0 | 0.0 | 0.00 | 0.00 | 0.00 | 94 | 1013.6 |
| 20260510060056 | 10 | 360 | 0.0 | 0.0 | 0.00 | 0.00 | 0.00 | 94 | 1013.7 |
| 20260510055557 | 10 | 360 | 0.0 | 0.0 | 0.00 | 0.00 | 0.00 | 94 | 1013.8 |
| 20260510055054 | 10 | 360 | 0.0 | 0.0 | 0.00 | 0.00 | 0.00 | 94 | 1013.6 |
| 20260510054554 | 10 | 360 | 0.0 | 0.0 | 0.00 | 0.00 | 0.00 | 94 | 1013.8 |
| 20260510054053 | 10 | 360 | 0.0 | 0.0 | 0.00 | 0.00 | 0.00 | 94 | 1013.8 |
| 20260510053552 | 10 | 360 | 0.0 | 0.0 | 0.00 | 0.00 | 0.00 | 94 | 1013.8 |
| 20260510053054 | 10 | 360 | 0.0 | 0.0 | 0.00 | 0.00 | 0.00 | 94 | 1013.9 |
| 20260510052554 | 10 | 360 | 0.0 | 0.0 | 0.00 | 0.00 | 0.00 | 94 | 1013.9 |
| 20260510052052 | 10 | 360 | 0.0 | 0.0 | 0.00 | 0.00 | 0.00 | 94 | 1014.0 |
| 20260510051601 | 10 | 360 | 0.0 | 0.0 | 0.00 | 0.00 | 0.00 | 94 | 1014.1 |
| 20260510051050 | 10 | 360 | 0.0 | 0.0 | 0.00 | 0.00 | 0.00 | 94 | 1014.1 |
| 20260510050552 | 10 | 360 | 0.0 | 0.0 | 0.00 | 0.00 | 0.00 | 94 | 1014.1 |
| 20260510050050 | 10 | 360 | 0.0 | 0.0 | 0.00 | 0.00 | 0.00 | 94 | 1014.1 |
| 20260510045550 | 10 | 360 | 0.0 | 0.0 | 0.00 | 0.00 | 0.00 | 94 | 1014.1 |
| 20260510045049 | 10 | 360 | 0.0 | 3.2 | 0.00 | 0.00 | 0.00 | 94 | 1014.1 |
| 20260510044558 | 10 | 360 | 0.0 | 3.2 | 0.00 | 0.00 | 0.00 | 94 | 1013.9 |
| 20260510044048 | 10 | 360 | 0.0 | 3.2 | 0.00 | 0.00 | 0.00 | 94 | 1013.9 |
| 20260510043548 | 10 | 360 | 0.0 | 3.2 | 0.00 | 0.00 | 0.00 | 94 | 1013.8 |
| 20260510043047 | 10 | 360 | 1.6 | 4.8 | 0.00 | 0.00 | 0.00 | 93 | 1013.7 |
| 20260510042549 | 10 | 360 | 0.0 | 3.2 | 0.00 | 0.00 | 0.00 | 94 | 1013.9 |
| 20260510042045 | 10 | 360 | 1.6 | 3.2 | 0.00 | 0.00 | 0.00 | 93 | 1013.8 |
| 20260510041544 | 10 | 360 | 0.0 | 3.2 | 0.00 | 0.00 | 0.00 | 93 | 1013.7 |
| 20260510041044 | 10 | 360 | 0.0 | 3.2 | 0.00 | 0.00 | 0.00 | 93 | 1013.7 |
| 20260510040543 | 10 | 360 | 0.0 | 3.2 | 0.00 | 0.00 | 0.00 | 93 | 1013.7 |
| 20260510040042 | 10 | 360 | 0.0 | 1.6 | 0.00 | 0.00 | 0.00 | 93 | 1013.7 |
| 20260510035542 | 11 | 360 | 0.0 | 3.2 | 0.00 | 0.00 | 0.00 | 93 | 1013.7 |
| 20260510035044 | 11 | 360 | 0.0 | 3.2 | 0.00 | 0.00 | 0.00 | 93 | 1013.7 |
| 20260510034541 | 11 | 360 | 0.0 | 3.2 | 0.00 | 0.00 | 0.00 | 93 | 1013.6 |
| 20260510034041 | 11 | 360 | 0.0 | 1.6 | 0.00 | 0.00 | 0.00 | 93 | 1013.6 |
| 20260510033539 | 11 | 360 | 0.0 | 1.6 | 0.00 | 0.00 | 0.00 | 93 | 1013.5 |
| 20260510033039 | 11 | 360 | 0.0 | 3.2 | 0.00 | 0.00 | 0.00 | 93 | 1013.5 |
| 20260510032541 | 11 | 360 | 0.0 | 3.2 | 0.00 | 0.00 | 0.00 | 93 | 1013.4 |
| 20260510032039 | 11 | 360 | 0.0 | 1.6 | 0.00 | 0.00 | 0.00 | 92 | 1013.4 |
| 20260510031538 | 11 | 360 | 0.0 | 1.6 | 0.00 | 0.00 | 0.00 | 92 | 1013.3 |
| 20260510031038 | 11 | 360 | 0.0 | 1.6 | 0.00 | 0.00 | 0.00 | 92 | 1013.4 |
| 20260510030537 | 11 | 360 | 0.0 | 3.2 | 0.00 | 0.00 | 0.00 | 92 | 1013.3 |
| 20260510030049 | 11 | 360 | 0.0 | 3.2 | 0.00 | 0.00 | 0.00 | 92 | 1013.2 |
| 20260510025538 | 11 | 360 | 0.0 | 3.2 | 0.00 | 0.00 | 0.00 | 92 | 1013.1 |
| 20260510025038 | 11 | 360 | 0.0 | 3.2 | 0.00 | 0.00 | 0.00 | 92 | 1013.1 |
| 20260510024538 | 11 | 360 | 0.0 | 3.2 | 0.00 | 0.00 | 0.00 | 91 | 1013.1 |
| 20260510024037 | 11 | 360 | 0.0 | 3.2 | 0.00 | 0.00 | 0.00 | 91 | 1013.1 |
| 20260510023537 | 12 | 360 | 0.0 | 3.2 | 0.00 | 0.00 | 0.00 | 91 | 1013.1 |
| 20260510023039 | 12 | 360 | 0.0 | 3.2 | 0.00 | 0.00 | 0.00 | 91 | 1013.1 |
| 20260510022540 | 12 | 360 | 0.0 | 3.2 | 0.00 | 0.00 | 0.00 | 90 | 1013.1 |
| 20260510022037 | 12 | 360 | 0.0 | 3.2 | 0.00 | 0.00 | 0.00 | 90 | 1013.0 |
| 20260510021537 | 12 | 360 | 0.0 | 1.6 | 0.00 | 0.00 | 0.00 | 90 | 1013.0 |
| 20260510021036 | 12 | 360 | 0.0 | 1.6 | 0.00 | 0.00 | 0.00 | 90 | 1012.8 |
| 20260510020540 | 12 | 360 | 0.0 | 3.2 | 0.00 | 0.00 | 0.00 | 89 | 1012.8 |
| 20260510020036 | 12 | 360 | 0.0 | 3.2 | 0.00 | 0.00 | 0.00 | 89 | 1012.7 |
| 20260510015536 | 12 | 360 | 1.6 | 4.8 | 0.00 | 0.00 | 0.00 | 88 | 1012.5 |
| 20260510015035 | 13 | 360 | 3.2 | 4.8 | 0.00 | 0.00 | 0.00 | 88 | 1012.3 |
| 20260510014536 | 13 | 360 | 1.6 | 4.8 | 0.00 | 0.00 | 0.00 | 88 | 1012.2 |
| 20260510014035 | 13 | 360 | 1.6 | 4.8 | 0.00 | 0.00 | 0.00 | 87 | 1012.2 |
| 20260510013538 | 13 | 360 | 3.2 | 4.8 | 0.00 | 0.00 | 0.00 | 87 | 1012.2 |
| 20260510013036 | 13 | 360 | 1.6 | 4.8 | 0.00 | 0.00 | 0.00 | 86 | 1012.0 |
| 20260510012536 | 13 | 360 | 1.6 | 4.8 | 0.00 | 0.00 | 0.00 | 84 | 1012.1 |
| 20260510012034 | 14 | 360 | 3.2 | 6.4 | 0.00 | 0.00 | 0.00 | 82 | 1012.0 |
| 20260510011538 | 15 | 360 | 3.2 | 6.4 | 0.00 | 0.00 | 0.00 | 81 | 1011.9 |
| 20260510011035 | 15 | 360 | 3.2 | 4.8 | 0.00 | 0.00 | 0.00 | 79 | 1011.8 |
| 20260510010535 | 15 | 360 | 1.6 | 4.8 | 0.00 | 0.00 | 0.00 | 77 | 1011.8 |
| 20260510010035 | 16 | 360 | 3.2 | 4.8 | 0.00 | 0.00 | 0.00 | 76 | 1011.8 |
| 20260510005534 | 16 | 360 | 1.6 | 4.8 | 0.00 | 0.00 | 0.00 | 75 | 1011.8 |
| 20260510005033 | 16 | 360 | 1.6 | 4.8 | 0.00 | 0.00 | 0.00 | 75 | 1011.7 |
| 20260510004535 | 16 | 360 | 1.6 | 4.8 | 0.00 | 0.00 | 0.00 | 75 | 1011.6 |
| 20260510004035 | 16 | 360 | 1.6 | 4.8 | 0.00 | 0.00 | 0.00 | 74 | 1011.4 |
| 20260510003533 | 17 | 360 | 1.6 | 4.8 | 0.00 | 0.00 | 0.00 | 71 | 1011.3 |
| 20260510003039 | 17 | 360 | 1.6 | 4.8 | 0.00 | 0.00 | 0.00 | 70 | 1011.2 |
| 20260510002532 | 17 | 360 | 1.6 | 4.8 | 0.00 | 0.00 | 0.00 | 70 | 1011.2 |
| 20260510002032 | 18 | 360 | 1.6 | 4.8 | 0.00 | 0.00 | 0.00 | 68 | 1011.1 |
| 20260510001532 | 18 | 360 | 0.0 | 3.2 | 0.00 | 0.00 | 0.00 | 65 | 1011.1 |
| 20260510001032 | 19 | 360 | 0.0 | 8.0 | 0.00 | 0.00 | 0.00 | 64 | 1011.0 |
| 20260510000532 | 19 | 360 | 3.2 | 8.0 | 0.00 | 0.00 | 0.00 | 63 | 1010.9 |
| 20260510000031 | 19 | 360 | 1.6 | 6.4 | 0.00 | 0.00 | 0.00 | 63 | 1010.8 |
| 20260509235531 | 19 | 360 | 1.6 | 6.4 | 0.00 | 0.00 | 0.00 | 65 | 1010.9 |
| 20260509235031 | 19 | 360 | 0.0 | 1.6 | 0.00 | 0.00 | 0.00 | 62 | 1010.8 |
| 20260509234538 | 20 | 360 | 0.0 | 3.2 | 0.00 | 0.00 | 0.00 | 61 | 1010.7 |
| 20260509234031 | 20 | 360 | 0.0 | 4.8 | 0.00 | 0.00 | 0.00 | 61 | 1010.7 |
| 20260509233530 | 20 | 360 | 0.0 | 4.8 | 0.00 | 0.00 | 0.00 | 61 | 1010.8 |
| 20260509233035 | 20 | 360 | 0.0 | 6.4 | 0.00 | 0.00 | 0.00 | 60 | 1010.9 |
| 20260509232535 | 20 | 360 | 1.6 | 6.4 | 0.00 | 0.00 | 0.00 | 59 | 1010.8 |
| 20260509232030 | 20 | 360 | 0.0 | 4.8 | 0.00 | 0.00 | 0.00 | 59 | 1010.7 |
| 20260509231533 | 20 | 360 | 1.6 | 9.7 | 0.00 | 0.00 | 0.00 | 58 | 1010.7 |
| 20260509231029 | 20 | 360 | 1.6 | 9.7 | 0.00 | 0.00 | 0.00 | 59 | 1010.7 |
| 20260509230530 | 20 | 360 | 1.6 | 17.7 | 0.00 | 0.00 | 0.00 | 58 | 1010.5 |
| 20260509230030 | 20 | 360 | 6.4 | 17.7 | 0.00 | 0.00 | 0.00 | 58 | 1010.5 |
| 20260509225529 | 20 | 360 | 3.2 | 8.0 | 0.00 | 0.00 | 0.00 | 57 | 1010.4 |
| 20260509225028 | 20 | 360 | 0.0 | 6.4 | 0.00 | 0.00 | 0.00 | 58 | 1010.5 |
| 20260509224528 | 20 | 360 | 0.0 | 8.0 | 0.00 | 0.00 | 0.00 | 58 | 1010.6 |
| 20260509224027 | 20 | 360 | 3.2 | 8.0 | 0.00 | 0.00 | 0.00 | 58 | 1010.8 |
| 20260509223526 | 20 | 360 | 0.0 | 4.8 | 0.00 | 0.00 | 0.00 | 61 | 1010.9 |
| 20260509223030 | 21 | 360 | 0.0 | 4.8 | 0.00 | 0.00 | 0.00 | 58 | 1010.9 |
| 20260509222525 | 21 | 360 | 1.6 | 6.4 | 0.00 | 0.00 | 0.00 | 59 | 1010.9 |
| 20260509222026 | 20 | 360 | 1.6 | 6.4 | 0.00 | 0.00 | 0.00 | 59 | 1011.1 |
| 20260509221526 | 20 | 360 | 1.6 | 6.4 | 0.00 | 0.00 | 0.00 | 61 | 1011.1 |
| 20260509221026 | 20 | 360 | 0.0 | 6.4 | 0.00 | 0.00 | 0.00 | 58 | 1011.1 |
| 20260509220528 | 21 | 360 | 1.6 | 12.9 | 0.00 | 0.00 | 0.00 | 59 | 1011.1 |
| 20260509220028 | 20 | 360 | 3.2 | 12.9 | 0.00 | 0.00 | 0.00 | 58 | 1011.0 |
| 20260509215525 | 20 | 360 | 3.2 | 6.4 | 0.00 | 0.00 | 0.00 | 59 | 1011.0 |
| 20260509215026 | 20 | 360 | 0.0 | 6.4 | 0.00 | 0.00 | 0.00 | 59 | 1011.1 |
| 20260509214524 | 20 | 360 | 0.0 | 16.1 | 0.00 | 0.00 | 0.00 | 58 | 1011.1 |
| 20260509214024 | 21 | 360 | 4.8 | 16.1 | 0.00 | 0.00 | 0.00 | 57 | 1011.0 |
| 20260509213524 | 21 | 360 | 4.8 | 14.5 | 0.00 | 0.00 | 0.00 | 58 | 1011.1 |
| 20260509213025 | 21 | 360 | 3.2 | 12.9 | 0.00 | 0.00 | 0.00 | 59 | 1011.1 |
| 20260509212524 | 21 | 360 | 3.2 | 14.5 | 0.00 | 0.00 | 0.00 | 56 | 1011.0 |
| 20260509212027 | 21 | 360 | 4.8 | 14.5 | 0.00 | 0.00 | 0.00 | 56 | 1011.0 |
| 20260509211522 | 21 | 360 | 3.2 | 8.0 | 0.00 | 0.00 | 0.00 | 59 | 1011.0 |
| 20260509211022 | 20 | 360 | 1.6 | 8.0 | 0.00 | 0.00 | 0.00 | 58 | 1011.1 |
| 20260509210527 | 20 | 360 | 3.2 | 6.4 | 0.00 | 0.00 | 0.00 | 59 | 1011.1 |
| 20260509210023 | 20 | 360 | 0.0 | 16.1 | 0.00 | 0.00 | 0.00 | 58 | 1011.1 |
| 20260509205522 | 20 | 360 | 4.8 | 16.1 | 0.00 | 0.00 | 0.00 | 59 | 1011.1 |
| 20260509205022 | 20 | 360 | 1.6 | 6.4 | 0.00 | 0.00 | 0.00 | 60 | 1011.1 |
| 20260509204522 | 20 | 360 | 1.6 | 8.0 | 0.00 | 0.00 | 0.00 | 59 | 1011.0 |
| 20260509204024 | 20 | 360 | 3.2 | 6.4 | 0.00 | 0.00 | 0.00 | 58 | 1011.1 |
| 20260509203521 | 20 | 360 | 1.6 | 6.4 | 0.00 | 0.00 | 0.00 | 59 | 1011.0 |
| 20260509203033 | 20 | 360 | 1.6 | 6.4 | 0.00 | 0.00 | 0.00 | 59 | 1010.9 |
| 20260509202520 | 20 | 360 | 1.6 | 4.8 | 0.00 | 0.00 | 0.00 | 60 | 1010.9 |
| 20260509202020 | 20 | 360 | 1.6 | 6.4 | 0.00 | 0.00 | 0.00 | 58 | 1011.0 |
| 20260509201519 | 20 | 360 | 1.6 | 6.4 | 0.00 | 0.00 | 0.00 | 60 | 1011.0 |
| 20260509201022 | 20 | 360 | 1.6 | 6.4 | 0.00 | 0.00 | 0.00 | 60 | 1011.1 |
| 20260509200519 | 20 | 360 | 1.6 | 4.8 | 0.00 | 0.00 | 0.00 | 60 | 1011.1 |
| 20260509200020 | 21 | 360 | 1.6 | 6.4 | 0.00 | 0.00 | 0.00 | 60 | 1011.0 |
| 20260509195519 | 20 | 360 | 1.6 | 9.7 | 0.00 | 0.00 | 0.00 | 59 | 1011.1 |
| 20260509195018 | 20 | 360 | 3.2 | 12.9 | 0.00 | 0.00 | 0.00 | 57 | 1011.3 |
| 20260509194518 | 20 | 360 | 4.8 | 12.9 | 0.00 | 0.00 | 0.00 | 57 | 1011.3 |
| 20260509194018 | 21 | 360 | 3.2 | 9.7 | 0.00 | 0.00 | 0.00 | 56 | 1011.2 |
| 20260509193520 | 20 | 360 | 4.8 | 8.0 | 0.00 | 0.00 | 0.00 | 57 | 1011.2 |
| 20260509193016 | 20 | 360 | 0.0 | 8.0 | 0.00 | 0.00 | 0.00 | 59 | 1011.3 |
| 20260509192515 | 20 | 360 | 1.6 | 8.0 | 0.00 | 0.00 | 0.00 | 62 | 1011.3 |
| 20260509192015 | 19 | 360 | 4.8 | 8.0 | 0.00 | 0.00 | 0.00 | 62 | 1011.2 |
| 20260509191520 | 19 | 360 | 1.6 | 9.7 | 0.00 | 0.00 | 0.00 | 60 | 1011.3 |
| 20260509191016 | 19 | 360 | 3.2 | 12.9 | 0.00 | 0.00 | 0.00 | 60 | 1011.4 |
| 20260509190515 | 20 | 360 | 3.2 | 12.9 | 0.00 | 0.00 | 0.00 | 58 | 1011.4 |
| 20260509190018 | 19 | 360 | 1.6 | 8.0 | 0.00 | 0.00 | 0.00 | 60 | 1011.4 |
| 20260509185514 | 19 | 360 | 3.2 | 12.9 | 0.00 | 0.00 | 0.00 | 61 | 1011.4 |
| 20260509185015 | 20 | 360 | 1.6 | 8.0 | 0.00 | 0.00 | 0.00 | 61 | 1011.4 |
| 20260509184513 | 20 | 360 | 3.2 | 8.0 | 0.00 | 0.00 | 0.00 | 61 | 1011.3 |
| 20260509184013 | 20 | 360 | 3.2 | 9.7 | 0.00 | 0.00 | 0.00 | 59 | 1011.3 |
| 20260509183512 | 20 | 360 | 4.8 | 9.7 | 0.00 | 0.00 | 0.00 | 61 | 1011.4 |
| 20260509183011 | 20 | 360 | 1.6 | 6.4 | 0.00 | 0.00 | 0.00 | 61 | 1011.4 |
| 20260509182514 | 19 | 360 | 1.6 | 6.4 | 0.00 | 0.00 | 0.00 | 61 | 1011.4 |
| 20260509182010 | 19 | 360 | 1.6 | 6.4 | 0.00 | 0.00 | 0.00 | 61 | 1011.4 |
| 20260509181508 | 18 | 360 | 1.6 | 6.4 | 0.00 | 0.00 | 0.00 | 61 | 1011.4 |
| 20260509181010 | 18 | 360 | 3.2 | 6.4 | 0.00 | 0.00 | 0.00 | 62 | 1011.4 |
| 20260509180508 | 18 | 360 | 0.0 | 6.4 | 0.00 | 0.00 | 0.00 | 63 | 1011.6 |
| 20260509180009 | 18 | 360 | 1.6 | 8.0 | 0.00 | 0.00 | 0.00 | 61 | 1011.4 |
| 20260509175507 | 18 | 360 | 3.2 | 8.0 | 0.00 | 0.00 | 0.00 | 61 | 1011.4 |
| 20260509175006 | 18 | 360 | 1.6 | 6.4 | 0.00 | 0.00 | 0.00 | 61 | 1011.5 |
| 20260509174507 | 18 | 360 | 1.6 | 6.4 | 0.00 | 0.00 | 0.00 | 61 | 1011.7 |
| 20260509174006 | 18 | 360 | 3.2 | 6.4 | 0.00 | 0.00 | 0.00 | 60 | 1011.6 |
| 20260509173505 | 18 | 360 | 1.6 | 4.8 | 0.00 | 0.00 | 0.00 | 59 | 1011.6 |
| 20260509173006 | 18 | 360 | 3.2 | 6.4 | 0.00 | 0.00 | 0.00 | 59 | 1011.7 |
| 20260509172505 | 18 | 360 | 1.6 | 6.4 | 0.00 | 0.00 | 0.00 | 60 | 1011.7 |
| 20260509172004 | 18 | 360 | 1.6 | 9.7 | 0.00 | 0.00 | 0.00 | 58 | 1011.8 |
| 20260509171504 | 18 | 360 | 1.6 | 9.7 | 0.00 | 0.00 | 0.00 | 59 | 1011.7 |
| 20260509171005 | 18 | 360 | 1.6 | 6.4 | 0.00 | 0.00 | 0.00 | 60 | 1011.9 |
| 20260509170504 | 18 | 360 | 1.6 | 12.9 | 0.00 | 0.00 | 0.00 | 58 | 1011.9 |
| 20260509170005 | 18 | 360 | 3.2 | 6.4 | 0.00 | 0.00 | 0.00 | 57 | 1012.0 |
| 20260509165503 | 18 | 360 | 1.6 | 6.4 | 0.00 | 0.00 | 0.00 | 57 | 1011.9 |
| 20260509165003 | 18 | 360 | 1.6 | 6.4 | 0.00 | 0.00 | 0.00 | 58 | 1012.2 |
| 20260509164503 | 18 | 360 | 1.6 | 6.4 | 0.00 | 0.00 | 0.00 | 58 | 1012.1 |
| 20260509164006 | 18 | 360 | 3.2 | 6.4 | 0.00 | 0.00 | 0.00 | 57 | 1012.1 |
| 20260509163502 | 18 | 360 | 3.2 | 8.0 | 0.00 | 0.00 | 0.00 | 56 | 1012.1 |
| 20260509163004 | 18 | 360 | 1.6 | 8.0 | 0.00 | 0.00 | 0.00 | 56 | 1012.1 |
| 20260509162501 | 18 | 360 | 1.6 | 12.9 | 0.00 | 0.00 | 0.00 | 56 | 1011.9 |
| 20260509162101 | 17 | 360 | 4.8 | 14.5 | 0.00 | 0.00 | 0.00 | 55 | 1011.9 |
| 20260509161603 | 17 | 360 | 6.4 | 16.1 | 0.00 | 0.00 | 0.00 | 55 | 1012.0 |
| 20260509161101 | 17 | 360 | 4.8 | 16.1 | 0.00 | 0.00 | 0.00 | 56 | 1011.9 |
| 20260509160600 | 17 | 360 | 6.4 | 19.3 | 0.00 | 0.00 | 0.00 | 57 | 1011.9 |
| 20260509160056 | 17 | 360 | 6.4 | 14.5 | 0.00 | 0.00 | 0.00 | 58 | 1011.8 |
| 20260509155552 | 17 | 360 | 3.2 | 8.0 | 0.00 | 0.00 | 0.00 | 59 | 1011.8 |
| 20260509155051 | 17 | 360 | 3.2 | 9.7 | 0.00 | 0.00 | 0.00 | 59 | 1012.1 |
| 20260509154551 | 16 | 360 | 1.6 | 9.7 | 0.00 | 0.00 | 0.00 | 63 | 1012.0 |
| 20260509154050 | 16 | 360 | 1.6 | 6.4 | 0.00 | 0.00 | 0.00 | 61 | 1011.8 |
| 20260509153549 | 16 | 360 | 1.6 | 6.4 | 0.00 | 0.00 | 0.00 | 61 | 1011.9 |
| 20260509153100 | 16 | 360 | 1.6 | 8.0 | 0.00 | 0.00 | 0.00 | 63 | 1011.9 |
| 20260509152548 | 16 | 360 | 3.2 | 8.0 | 0.00 | 0.00 | 0.00 | 62 | 1011.9 |
| 20260509152048 | 16 | 360 | 0.0 | 4.8 | 0.00 | 0.00 | 0.00 | 68 | 1011.9 |
| 20260509151550 | 16 | 360 | 1.6 | 6.4 | 0.00 | 0.00 | 0.00 | 65 | 1012.0 |
| 20260509151047 | 16 | 360 | 1.6 | 6.4 | 0.00 | 0.00 | 0.00 | 66 | 1011.9 |
| 20260509150545 | 16 | 360 | 0.0 | 4.8 | 0.00 | 0.00 | 0.00 | 67 | 1012.0 |
| 20260509150047 | 16 | 360 | 1.6 | 6.4 | 0.00 | 0.00 | 0.00 | 67 | 1012.2 |
| 20260509145546 | 16 | 360 | 1.6 | 4.8 | 0.00 | 0.00 | 0.00 | 68 | 1012.1 |
| 20260509145045 | 16 | 360 | 0.0 | 4.8 | 0.00 | 0.00 | 0.00 | 68 | 1012.1 |
| 20260509144544 | 16 | 360 | 0.0 | 3.2 | 0.00 | 0.00 | 0.00 | 68 | 1012.3 |
| 20260509144044 | 16 | 360 | 0.0 | 4.8 | 0.00 | 0.00 | 0.00 | 68 | 1012.2 |
| 20260509143547 | 16 | 360 | 1.6 | 4.8 | 0.00 | 0.00 | 0.00 | 65 | 1012.4 |
| 20260509143047 | 16 | 360 | 1.6 | 4.8 | 0.00 | 0.00 | 0.00 | 67 | 1012.5 |
| 20260509142542 | 16 | 360 | 0.0 | 1.6 | 0.00 | 0.00 | 0.00 | 70 | 1012.5 |
| 20260509142043 | 16 | 360 | 0.0 | 3.2 | 0.00 | 0.00 | 0.00 | 67 | 1012.3 |
| 20260509141543 | 16 | 360 | 0.0 | 9.7 | 0.00 | 0.00 | 0.00 | 67 | 1012.3 |
| 20260509141043 | 16 | 360 | 4.8 | 9.7 | 0.00 | 0.00 | 0.00 | 66 | 1012.1 |
| 20260509140542 | 16 | 360 | 3.2 | 8.0 | 0.00 | 0.00 | 0.00 | 64 | 1012.2 |
| 20260509140048 | 16 | 360 | 3.2 | 9.7 | 0.00 | 0.00 | 0.00 | 65 | 1012.1 |
| 20260509135540 | 16 | 360 | 4.8 | 9.7 | 0.00 | 0.00 | 0.00 | 67 | 1012.0 |
| 20260509135040 | 16 | 360 | 1.6 | 9.7 | 0.00 | 0.00 | 0.00 | 69 | 1012.1 |
| 20260509134540 | 15 | 360 | 4.8 | 9.7 | 0.00 | 0.00 | 0.00 | 68 | 1012.1 |
| 20260509134038 | 15 | 360 | 4.8 | 9.7 | 0.00 | 0.00 | 0.00 | 69 | 1012.1 |
| 20260509133537 | 15 | 360 | 1.6 | 8.0 | 0.00 | 0.00 | 0.00 | 72 | 1012.1 |
| 20260509133036 | 15 | 360 | 1.6 | 8.0 | 0.00 | 0.00 | 0.00 | 73 | 1012.0 |
| 20260509132535 | 15 | 360 | 0.0 | 4.8 | 0.00 | 0.00 | 0.00 | 76 | 1012.2 |
| 20260509132035 | 14 | 360 | 0.0 | 0.0 | 0.00 | 0.00 | 0.00 | 78 | 1012.3 |
| 20260509131535 | 13 | 360 | 0.0 | 0.0 | 0.00 | 0.00 | 0.00 | 79 | 1012.2 |
| 20260509131029 | 13 | 360 | 0.0 | 0.0 | 0.00 | 0.00 | 0.00 | 80 | 1012.3 |
| 20260509130531 | 13 | 360 | 0.0 | 0.0 | 0.00 | 0.00 | 0.00 | 81 | 1012.5 |
| 20260509130027 | 12 | 360 | 0.0 | 0.0 | 0.00 | 0.00 | 0.00 | 82 | 1012.5 |
| 20260509125528 | 12 | 360 | 0.0 | 0.0 | 0.00 | 0.00 | 0.00 | 83 | 1012.7 |
| 20260509125025 | 12 | 360 | 0.0 | 1.6 | 0.00 | 0.00 | 0.00 | 85 | 1012.9 |
| 20260509124523 | 12 | 360 | 0.0 | 1.6 | 0.00 | 0.00 | 0.00 | 87 | 1012.9 |
| 20260509124023 | 12 | 360 | 0.0 | 0.0 | 0.00 | 0.00 | 0.00 | 87 | 1012.8 |
| 20260509123522 | 11 | 360 | 0.0 | 0.0 | 0.00 | 0.00 | 0.00 | 88 | 1012.8 |
| 20260509123022 | 11 | 360 | 0.0 | 0.0 | 0.00 | 0.00 | 0.00 | 89 | 1012.9 |
| 20260509122521 | 11 | 360 | 0.0 | 0.0 | 0.00 | 0.00 | 0.00 | 90 | 1012.9 |
| 20260509122020 | 11 | 360 | 0.0 | 1.6 | 0.00 | 0.00 | 0.00 | 90 | 1012.8 |
| 20260509121521 | 11 | 360 | 0.0 | 1.6 | 0.00 | 0.00 | 0.00 | 91 | 1012.7 |
| 20260509121019 | 11 | 360 | 0.0 | 0.0 | 0.00 | 0.00 | 0.00 | 91 | 1012.7 |
| 20260509120519 | 11 | 360 | 0.0 | 0.0 | 0.00 | 0.00 | 0.00 | 91 | 1012.8 |
| 20260509120019 | 11 | 360 | 0.0 | 0.0 | 0.00 | 0.00 | 0.00 | 91 | 1012.7 |
| 20260509115519 | 11 | 360 | 0.0 | 1.6 | 0.00 | 0.00 | 0.00 | 91 | 1012.7 |
| 20260509115017 | 10 | 360 | 0.0 | 1.6 | 0.00 | 0.00 | 0.00 | 92 | 1012.7 |
| 20260509114516 | 10 | 360 | 0.0 | 1.6 | 0.00 | 0.00 | 0.00 | 92 | 1012.6 |
| 20260509114015 | 10 | 360 | 0.0 | 1.6 | 0.00 | 0.00 | 0.00 | 92 | 1012.6 |
| 20260509113514 | 10 | 360 | 0.0 | 1.6 | 0.00 | 0.00 | 0.00 | 92 | 1012.6 |
| 20260509113013 | 10 | 360 | 0.0 | 3.2 | 0.00 | 0.00 | 0.00 | 92 | 1012.6 |
| 20260509112512 | 10 | 360 | 0.0 | 3.2 | 0.00 | 0.00 | 0.00 | 92 | 1012.5 |
| 20260509112014 | 10 | 360 | 0.0 | 3.2 | 0.00 | 0.00 | 0.00 | 92 | 1012.4 |
| 20260509111512 | 10 | 360 | 1.6 | 3.2 | 0.00 | 0.00 | 0.00 | 92 | 1012.3 |
| 20260509111013 | 10 | 360 | 0.0 | 1.6 | 0.00 | 0.00 | 0.00 | 92 | 1012.4 |
| 20260509110510 | 10 | 360 | 0.0 | 1.6 | 0.00 | 0.00 | 0.00 | 92 | 1012.3 |
| 20260509110009 | 10 | 360 | 0.0 | 1.6 | 0.00 | 0.00 | 0.00 | 92 | 1012.4 |
| 20260509105511 | 10 | 360 | 0.0 | 1.6 | 0.00 | 0.00 | 0.00 | 92 | 1012.5 |
| 20260509105010 | 10 | 360 | 0.0 | 1.6 | 0.00 | 0.00 | 0.00 | 92 | 1012.5 |
| 20260509104510 | 10 | 360 | 0.0 | 1.6 | 0.00 | 0.00 | 0.00 | 92 | 1012.4 |
| 20260509104009 | 10 | 360 | 0.0 | 1.6 | 0.00 | 0.00 | 0.00 | 92 | 1012.6 |
| 20260509103508 | 10 | 360 | 0.0 | 0.0 | 0.00 | 0.00 | 0.00 | 92 | 1012.6 |
| 20260509103008 | 10 | 360 | 0.0 | 1.6 | 0.00 | 0.00 | 0.00 | 92 | 1012.5 |
| 20260509102508 | 10 | 360 | 0.0 | 1.6 | 0.00 | 0.00 | 0.00 | 92 | 1012.4 |
| 20260509102008 | 10 | 360 | 0.0 | 0.0 | 0.00 | 0.00 | 0.00 | 92 | 1012.6 |
| 20260509101508 | 10 | 360 | 0.0 | 0.0 | 0.00 | 0.00 | 0.00 | 92 | 1012.5 |
| 20260509101010 | 10 | 360 | 0.0 | 0.0 | 0.00 | 0.00 | 0.00 | 91 | 1012.5 |
| 20260509100507 | 10 | 360 | 0.0 | 0.0 | 0.00 | 0.00 | 0.00 | 91 | 1012.4 |
| 20260509100007 | 10 | 360 | 0.0 | 0.0 | 0.00 | 0.00 | 0.00 | 91 | 1012.4 |
| 20260509095506 | 10 | 360 | 0.0 | 1.6 | 0.00 | 0.00 | 0.00 | 91 | 1012.3 |
| 20260509095006 | 10 | 360 | 0.0 | 3.2 | 0.00 | 0.00 | 0.00 | 90 | 1012.2 |
| 20260509094509 | 10 | 360 | 0.0 | 3.2 | 0.00 | 0.00 | 0.00 | 90 | 1012.4 |
| 20260509094004 | 10 | 360 | 0.0 | 3.2 | 0.00 | 0.00 | 0.00 | 90 | 1012.3 |
| 20260509093507 | 10 | 360 | 0.0 | 1.6 | 0.00 | 0.00 | 0.00 | 90 | 1012.5 |
| 20260509093004 | 10 | 360 | 0.0 | 1.6 | 0.00 | 0.00 | 0.00 | 90 | 1012.5 |
| 20260509092504 | 10 | 360 | 0.0 | 3.2 | 0.00 | 0.00 | 0.00 | 90 | 1012.5 |
| 20260509092002 | 10 | 360 | 0.0 | 3.2 | 0.00 | 0.00 | 0.00 | 89 | 1012.5 |
| 20260509091502 | 10 | 360 | 0.0 | 1.6 | 0.00 | 0.00 | 0.00 | 89 | 1012.6 |
| 20260509091002 | 10 | 360 | 0.0 | 1.6 | 0.00 | 0.00 | 0.00 | 89 | 1012.6 |
| 20260509090502 | 10 | 360 | 0.0 | 0.0 | 0.00 | 0.00 | 0.00 | 89 | 1012.6 |
| 20260509090101 | 10 | 360 | 0.0 | 1.6 | 0.00 | 0.00 | 0.00 | 89 | 1012.6 |
| 20260509085602 | 11 | 360 | 0.0 | 1.6 | 0.00 | 0.00 | 0.00 | 88 | 1012.6 |
| 20260509085059 | 11 | 360 | 0.0 | 1.6 | 0.00 | 0.00 | 0.00 | 88 | 1012.6 |
| 20260509084600 | 11 | 360 | 0.0 | 1.6 | 0.00 | 0.00 | 0.00 | 88 | 1012.8 |
| 20260509084059 | 11 | 360 | 0.0 | 0.0 | 0.00 | 0.00 | 0.00 | 88 | 1012.8 |
| 20260509083559 | 11 | 360 | 0.0 | 0.0 | 0.00 | 0.00 | 0.00 | 88 | 1012.9 |